CAPE
2403 2419 2421 2430 2387 2330 2425 2376 2280 2132 2069 1890 1826 1792 1712 1615 1542 1309 1082 1088 1282 549 583 696 767 685 1089 1572 1466 1422 1410 1381 983 736 610 467 355 281 126 28 3 2 3 83 119 150 99 165 465 676 571 41 0 0 0 0 0 0 0 0 0 0
2359 2370 2396 2396 2350 2309 2294 2328 2172 2110 2109 1826 1847 1911 1792 1707 1565 1230 1257 956 585 790 418 522 682 1091 1185 1380 1141 1308 1420 1408 1084 882 695 606 502 444 265 100 30 62 62 138 219 0 0 15 30 343 479 3 0 0 0 0 0 0 0 0 0 2
2226 2271 2320 2346 2392 2292 2302 2179 2051 2006 2182 2284 2162 2146 1818 1756 1302 1135 850 787 916 599 302 676 931 1045 1308 1263 1234 1209 1352 1311 1100 955 766 590 488 440 347 150 61 119 130 124 10 0 0 0 0 25 6 0 0 0 0 0 0 0 0 0 0 1
1992 2156 2132 2189 2295 2298 2270 2214 2099 2063 2130 2105 1951 1785 1529 1268 1290 1150 1122 1252 704 589 791 715 1036 940 1165 1074 932 1115 1225 1266 1162 1103 795 743 528 416 448 322 207 132 98 12 0 0 0 0 0 0 0 0 0 0 0 0 0 0 0 0 0 0
1695 1867 1858 1930 2124 2175 2173 2150 2101 2051 1976 2018 1917 1842 1609 1340 1270 1201 1338 1381 1076 788 728 804 770 946 920 905 887 958 951 1082 1031 1005 1019 696 489 416 232 64 0 51 0 0 0 0 0 6 4 0 0 0 0 0 0 0 0 0 0 0 0 0
1472 1577 1648 1581 2061 2048 2044 2063 2051 1934 1939 1906 1982 1795 1740 1431 1267 1230 1290 1256 1016 1235 747 868 631 788 880 870 934 967 994 1034 1027 1021 936 768 594 509 278 191 73 17 3 0 0 0 3 158 122 133 0 0 0 0 0 0 0 0 0 0 0 0
1215 1377 1454 1443 1861 1923 1900 1751 1822 1823 1824 1832 1841 1492 1612 1537 1210 1195 1295 1364 1028 1121 800 842 486 600 810 896 929 986 1024 995 1002 1073 884 776 735 625 496 200 76 32 4 0 0 30 46 76 170 202 0 0 0 0 0 0 0 0 0 0 0 0
1240 1112 1179 1256 1447 1631 1692 1583 1613 2256 1919 1802 1784 1657 1495 1450 1351 1124 1027 1075 1515 984 812 744 38 24 578 783 874 937 991 1015 972 1124 972 780 670 558 692 350 97 48 47 100 135 135 181 191 191 5 0 0 0 0 0 0 0 0 0 0 0 0
1341 1314 1232 1139 1064 1370 1408 1499 1379 1698 1725 2565 1626 1664 1619 1442 1378 1161 899 1036 1996 866 716 527 105 4 2 172 437 742 812 863 727 760 1041 676 241 53 347 298 35 166 147 131 103 99 101 118 114 0 0 0 0 0 0 0 0 0 0 0 0 0
1400 1361 1331 1201 1154 1057 1200 1314 1361 1541 1696 2299 1664 1713 1618 1472 1467 1231 790 872 1328 818 589 412 500 160 0 2 0 4 141 431 337 298 170 194 423 446 375 8 19 175 243 302 275 198 115 0 0 0 0 0 0 0 0 0 0 0 0 0 0 0
1334 1421 1316 1299 1289 1126 989 1065 1341 1604 1608 2176 1837 1650 1623 1400 1322 1272 787 1234 1238 1163 633 466 562 342 138 0 0 0 1 41 2 144 12 1 140 268 104 38 217 248 252 292 326 236 76 0 0 1 3 0 0 0 0 0 0 0 0 0 0 0
1201 1333 1357 1380 1493 1088 843 952 1568 1602 1722 1810 1787 1715 1588 1374 1068 1044 896 1346 1194 693 1231 654 616 560 233 189 92 16 14 84 129 321 37 76 183 230 251 206 344 156 228 4 211 180 51 9 9 38 1 0 0 0 0 0 0 0 0 0 0 0
1125 1338 1338 1248 1281 1246 1128 1146 1687 1623 1741 1642 1518 1499 1442 1062 819 999 856 1260 1351 899 1864 655 588 639 790 574 468 217 153 358 500 452 151 233 604 243 168 303 122 227 115 162 55 92 147 82 72 38 1 0 0 0 0 0 0 0 0 0 0 0
1108 1171 1162 1194 1152 1107 1096 1190 1562 1646 1540 1332 1161 938 1037 996 893 1097 1030 1229 1616 1490 1415 1358 671 637 575 619 597 548 482 744 514 102 304 382 242 295 331 332 288 221 755 593 177 180 187 178 184 162 52 72 74 12 22 64 46 16 0 0 0 0
1319 1150 1670 1226 1585 1065 982 1303 1228 1414 1495 1247 1002 882 858 866 811 981 1108 1260 1540 1522 1552 1039 851 492 615 677 698 740 567 531 478 243 358 498 297 585 367 343 263 518 529 319 292 652 238 242 237 218 214 233 248 210 65 139 87 35 0 0 0 0
1462 1215 1574 1427 1413 1363 1500 1362 1311 1942 1294 1207 939 789 753 781 1011 882 924 1210 1292 1476 1811 1182 1517 1206 749 1056 825 824 686 711 604 459 427 657 530 443 465 369 534 574 867 599 555 396 400 379 264 232 211 229 262 261 226 186 122 110 44 0 0 105
1495 1256 1494 1440 1252 1363 1460 1065 1088 1230 1082 942 708 627 695 1028 1462 1291 991 1077 1234 1127 1392 1282 1229 1608 1506 1295 896 910 889 857 545 568 404 684 573 441 450 371 510 705 1265 1064 618 578 422 356 486 324 438 220 260 277 290 248 226 267 276 256 230 270
1613 1455 1492 1401 1112 1239 1368 1025 1042 1004 1404 1081 1092 869 1044 1567 1642 1585 1281 1191 1544 1394 1441 1582 1447 1384 1446 1342 1252 1088 1024 997 1005 798 568 711 578 614 813 809 1073 1576 1457 1300 1274 1083 600 367 249 326 380 395 415 293 320 268 300 392 350 436 360 350
1772 1655 1560 1452 1255 1524 1561 1038 985 828 934 963 1044 1182 1333 1838 1942 1608 1404 1315 1350 1874 2446 2053 1740 1913 1460 1499 1352 1345 1158 1225 1174 970 863 683 736 604 728 1279 1138 1149 1256 1550 1211 1047 819 504 274 311 418 398 529 336 387 354 379 402 442 517 513 494
1775 1729 1704 1610 1644 1812 1649 1213 875 839 848 856 1032 1254 1308 1660 1840 1439 1177 1230 1427 1792 2157 2013 1801 1824 1868 1287 1364 1517 1290 1215 1156 976 994 831 604 456 630 1094 1027 890 1042 1172 1057 1012 898 599 278 324 463 455 467 495 421 436 456 526 598 610 631 568
1774 1821 1726 1648 1643 1721 1569 1361 1086 920 837 816 818 942 1032 1502 1667 1590 1441 1272 1340 1597 2009 1909 1729 1673 1874 2283 1470 1380 1483 1355 1334 1172 1046 836 657 588 666 794 841 785 746 944 943 874 688 425 176 326 390 399 439 402 565 806 657 618 649 701 725 700
1721 1750 1687 1554 1468 1569 1446 1333 1075 940 1012 1017 1002 1070 688 1051 1414 1365 1242 1186 1200 1217 1693 1859 1651 1545 1658 1988 1793 1485 1216 1338 1264 1101 977 950 864 866 804 684 703 782 701 888 998 853 683 75 39 72 346 370 350 387 599 876 828 816 662 738 747 734
1680 1615 1509 1418 1388 1370 1368 1267 1094 1076 1052 1203 1159 1085 872 746 854 1012 996 859 895 827 1182 1589 1671 1535 1488 1652 1838 1653 1392 1062 1076 1064 1069 1080 1058 1027 953 752 570 656 665 836 928 794 587 281 58 19 54 219 380 368 497 880 1047 985 895 771 787 767
1725 1597 1496 1530 1416 1336 1279 1237 1061 1109 1322 1230 1152 1208 1283 1127 919 840 907 961 880 1041 978 1188 1463 1416 1236 1383 1801 1732 1511 1224 1066 1052 1004 960 969 973 889 751 584 498 621 770 706 635 525 383 59 25 77 200 273 152 77 388 711 812 743 949 923 840
1806 1643 1522 1529 1581 1411 1331 1265 1126 1180 1280 1455 1260 1140 1062 1005 940 953 1244 1161 1059 1162 932 885 1165 1231 1194 1200 1604 1810 1677 1431 1129 1055 1040 965 841 840 824 765 660 508 593 628 504 459 304 452 388 130 20 24 74 244 149 294 804 1015 928 1060 922 889
1771 1711 1624 1530 1562 1498 1433 1356 1189 1251 1328 1292 1280 1228 975 809 806 888 942 1053 1126 1204 1340 928 854 1010 1170 1219 1282 1607 1777 1631 1382 1108 996 999 917 828 794 775 728 529 524 549 494 360 326 282 378 384 75 0 360 119 470 574 31 368 929 894 929 989
1859 1828 1747 1671 1699 1669 1528 1463 1372 1262 1348 1280 1181 1232 1142 922 866 946 1037 1151 1182 1242 1391 1310 887 835 992 1250 1172 1256 1629 1741 1552 1325 1100 916 822 806 784 792 742 493 468 478 512 434 306 158 192 172 227 92 356 445 115 181 443 468 60 851 985 1170
1857 1756 1726 1733 1792 1788 1610 1534 1462 1349 1450 1480 1307 1204 1233 1277 1196 1163 1184 1242 1262 1259 1315 1350 1193 921 974 1135 1199 1094 1255 1656 1663 1512 1372 1163 896 850 870 815 711 504 467 448 510 522 502 395 159 116 255 480 537 380 332 446 506 466 252 128 82 977
1864 1762 1780 1776 1807 1860 1789 1757 1707 1524 1334 1458 1471 1317 1237 1287 1342 1323 1298 1283 1285 1316 1326 1304 1259 1090 974 989 1077 988 959 1343 1590 1564 1462 1349 1140 935 828 720 663 665 558 527 542 638 626 478 169 51 389 356 508 363 369 582 580 551 334 331 169 474
1646 1582 1523 1838 1863 1889 1945 1915 1774 1584 1467 1427 1494 1497 1418 1369 1355 1407 1420 1425 1383 1381 1410 1390 1336 1250 1188 1146 1107 1035 934 1247 1506 1546 1516 1423 1286 1108 936 732 608 638 615 595 637 716 831 694 491 159 25 15 290 156 46 106 482 507 476 380 225 155
1375 1262 1101 1234 1300 1308 1677 1690 1572 1572 1578 1541 1495 1464 1469 1430 1398 1466 1483 1447 1402 1424 1465 1477 1419 1304 1290 1351 1327 1228 1120 1214 1578 1644 1638 1583 1416 1219 1065 884 721 621 640 612 648 741 781 846 803 750 642 203 36 6 1 78 231 742 560 563 512 496
1034 975 986 908 929 972 1001 1021 1037 1082 1149 1254 1252 1257 1368 1408 1329 1516 1574 1502 1462 1453 1476 1476 1450 1392 1321 1265 1386 1400 1317 1265 1537 1698 1721 1701 1566 1322 1106 932 805 699 652 646 672 710 790 862 863 854 838 712 272 5 1 25 13 207 641 707 606 632
1013 930 989 901 1072 1054 1036 1098 1173 1266 1295 1342 1402 1448 1479 1544 1480 1438 1585 1604 1582 1554 1495 1468 1480 1490 1469 1395 1287 1364 1275 1392 1588 1703 1755 1737 1643 1440 1182 960 825 753 752 702 718 747 778 768 773 733 751 697 620 324 90 66 154 292 622 674 590 494
924 886 906 979 1014 971 1025 1073 1097 1118 1178 1200 1291 1356 1446 1442 1484 1378 1325 1385 1450 1434 1428 1429 1459 1506 1559 1544 1502 1442 1466 1477 1520 1743 1810 1779 1682 1544 1352 1159 972 807 831 835 781 794 776 755 728 714 651 603 543 445 335 45 138 244 640 656 618 589
834 898 772 865 866 759 724 656 736 848 851 968 1170 1375 1433 1340 1281 1279 1459 1442 1386 1374 1359 1372 1426 1510 1529 1556 1541 1545 1584 1440 1411 1401 1530 1552 1738 1682 1544 1425 1307 1177 1006 992 983 923 888 860 828 751 656 567 509 446 390 329 326 503 668 663 647 875
855 913 750 762 747 719 630 706 758 760 861 1069 1281 1205 1235 1370 1530 1428 1273 1212 1243 1305 1449 1472 1436 1393 1390 1390 1430 1457 1440 1333 1203 1162 1206 1226 1287 1374 1532 1544 1471 1382 1278 1211 1246 1224 1192 1126 1038 902 800 730 663 566 425 310 263 277 394 475 646 759
783 826 730 702 726 616 667 786 734 691 716 984 1091 1088 1022 1139 1406 1296 1179 1075 1079 1058 1216 1312 1295 1316 1326 1243 1163 1177 1356 1350 1224 1074 1082 1365 1384 1340 1387 1435 1494 1563 1488 1438 1388 1344 1307 1222 1138 1056 960 882 772 669 485 276 114 278 394 480 532 728
Wind_Speed
15 13 11 10 8 7 6 10 10 11 13 13 13 11 10 9 7 6 6 9 11 12 13 14 16 15 19 18 20 20 19 19 17 14 12 12 12 12 12 nan nan nan nan nan 12 17 nan 20 20 22 24 nan nan nan nan nan nan nan nan nan nan nan
14 12 11 10 9 8 7 8 7 8 8 10 12 10 8 4 5 4 7 8 8 10 12 13 13 16 17 18 19 21 20 19 16 14 12 12 12 12 11 10 nan nan nan 12 15 nan nan nan nan 24 23 nan nan nan nan nan nan nan nan nan nan nan
14 13 12 11 11 10 10 10 9 9 8 10 10 10 7 7 6 6 7 7 9 10 10 11 12 14 16 18 17 19 20 18 16 14 12 12 12 12 12 12 nan 11 12 13 nan nan nan nan nan nan nan nan nan nan nan nan nan nan nan nan nan nan
14 13 15 15 14 13 12 11 10 9 9 9 9 8 9 8 7 7 7 9 9 10 10 10 12 16 16 15 15 17 18 18 16 15 13 13 13 13 13 14 14 13 nan nan nan nan nan nan nan nan nan nan nan nan nan nan nan nan nan nan nan nan
14 15 16 16 15 12 11 10 9 8 8 8 7 7 8 8 9 9 9 11 11 9 11 11 13 14 14 14 16 16 17 17 17 15 15 14 12 12 13 nan nan nan nan nan nan nan nan nan nan nan nan nan nan nan nan nan nan nan nan nan nan nan
14 16 15 15 15 14 13 9 9 9 8 8 7 6 7 9 10 10 11 11 13 12 12 14 13 14 13 14 15 16 17 17 17 15 15 13 13 13 13 13 nan nan nan nan nan nan nan 17 18 20 nan nan nan nan nan nan nan nan nan nan nan nan
16 14 14 14 16 17 16 14 13 10 10 8 7 7 8 9 9 9 11 11 12 12 12 13 13 13 12 13 14 15 16 16 16 15 15 14 13 13 13 14 nan nan nan nan nan nan nan nan 17 17 nan nan nan nan nan nan nan nan nan nan nan nan
14 12 12 13 14 15 15 14 12 11 11 8 7 7 9 10 8 9 10 10 11 12 12 12 nan nan 11 12 13 14 15 16 15 15 15 15 15 14 14 13 nan nan nan 10 9 9 11 14 16 nan nan nan nan nan nan nan nan nan nan nan nan nan
11 10 11 11 11 12 13 12 11 12 12 7 7 8 10 10 9 10 10 10 12 12 11 10 11 nan nan 11 11 13 14 15 15 14 15 15 14 nan 13 12 nan 10 9 7 7 nan 8 10 13 nan nan nan nan nan nan nan nan nan nan nan nan nan
9 9 9 8 8 8 9 11 11 11 10 7 6 7 10 11 11 10 10 10 12 11 10 9 9 10 nan nan nan nan 13 13 14 14 15 14 13 15 14 nan nan 11 8 7 7 6 7 nan nan nan nan nan nan nan nan nan nan nan nan nan nan nan
8 9 9 6 6 4 4 8 11 9 7 6 5 6 7 10 10 9 9 11 12 11 11 10 9 9 10 nan nan nan nan nan nan 15 nan nan 15 15 15 nan 12 10 9 7 7 7 nan nan nan nan nan nan nan nan nan nan nan nan nan nan nan nan
7 9 8 7 8 4 3 7 8 5 4 5 4 4 5 6 7 6 7 11 13 12 12 10 9 9 9 9 nan nan nan nan 14 15 nan nan 16 15 16 16 14 11 13 nan 9 8 nan nan nan nan nan nan nan nan nan nan nan nan nan nan nan nan
7 9 8 7 8 7 7 8 8 4 4 4 4 2 1 3 4 3 5 9 10 10 10 9 8 7 7 7 8 9 11 14 14 14 17 16 17 18 18 19 16 17 15 16 nan nan 13 nan nan nan nan nan nan nan nan nan nan nan nan nan nan nan
7 7 8 8 7 6 6 8 7 4 4 3 2 3 3 2 4 4 5 7 9 9 9 9 8 6 5 6 7 8 11 13 13 16 19 19 19 20 20 20 18 20 18 16 12 13 14 13 14 16 nan nan nan nan nan nan nan nan nan nan nan nan
9 7 7 7 7 6 5 5 6 5 3 3 2 2 4 3 3 3 3 4 7 7 6 9 9 6 5 5 7 7 11 11 12 15 17 18 20 20 20 19 19 19 18 15 12 14 14 12 13 14 16 17 14 15 nan 19 nan nan nan nan nan nan
9 7 8 7 7 6 6 6 7 5 3 2 1 2 1 2 2 2 1 5 5 6 7 10 9 7 7 6 8 8 9 10 11 13 15 17 19 20 20 19 16 17 15 11 15 14 16 16 17 16 16 16 17 18 19 20 19 18 nan nan nan 12
6 6 6 7 7 8 8 8 8 8 5 3 1 0 1 2 3 2 1 1 1 5 6 7 8 11 13 12 11 11 10 9 10 13 13 14 16 17 19 19 15 15 13 14 15 15 19 20 18 19 19 16 16 17 18 18 18 18 18 15 13 12
6 6 6 6 6 7 9 9 9 9 7 7 4 2 2 2 2 2 0 2 1 1 3 5 9 13 15 14 14 13 11 11 11 13 13 13 13 16 18 20 18 18 15 15 17 19 20 20 20 20 20 22 20 18 16 18 18 20 18 16 15 13
7 6 6 6 7 9 11 11 11 11 10 9 8 7 6 3 1 1 2 2 1 1 3 4 7 11 17 14 16 14 13 12 13 14 13 12 12 13 15 14 14 16 14 14 18 17 18 19 20 20 20 20 20 18 17 17 18 19 18 17 15 13
9 8 8 8 9 11 12 11 11 11 10 8 8 8 8 6 4 1 1 1 1 1 2 4 5 8 11 12 14 14 14 15 15 16 15 13 11 12 13 13 13 15 15 16 18 17 17 18 18 20 19 20 20 20 19 17 17 17 18 18 17 18
11 10 10 9 10 10 11 12 12 10 8 8 8 8 7 6 5 3 2 2 2 2 4 5 5 7 8 9 10 13 15 15 16 16 15 14 13 12 11 13 16 17 16 17 17 18 16 18 19 18 20 20 22 21 19 19 17 16 17 18 19 19
14 13 11 10 10 10 10 10 11 10 11 10 9 8 5 5 5 5 5 5 5 5 5 6 6 6 7 8 9 10 12 13 15 15 14 16 16 14 13 14 17 18 18 19 18 17 16 nan nan nan 19 19 21 21 20 19 18 18 17 18 19 20
16 16 14 13 13 11 11 12 13 13 12 11 11 10 8 7 7 6 6 6 7 8 7 7 7 7 8 7 8 9 9 11 12 14 16 16 16 16 15 14 14 16 18 21 22 20 18 20 nan nan nan 21 20 21 22 24 22 19 18 18 20 20
19 17 16 15 14 13 13 13 14 15 13 13 11 10 10 10 9 9 7 7 8 9 9 8 8 9 9 8 8 8 9 10 11 12 14 17 17 17 17 15 14 14 17 19 20 20 20 21 nan nan nan 16 16 20 nan 22 21 21 20 19 20 19
21 19 18 16 16 16 16 16 16 16 16 15 14 13 12 10 10 9 9 9 7 10 10 9 10 10 10 10 9 8 8 9 12 11 13 15 17 16 17 16 15 14 14 16 15 19 19 20 19 18 nan nan nan 18 17 19 23 21 23 23 20 19
23 22 19 18 18 18 17 17 17 16 15 14 12 13 10 8 9 9 8 11 11 11 11 12 11 11 10 11 10 9 9 10 11 12 12 13 14 16 17 16 13 13 12 14 17 19 17 18 18 18 nan nan 16 16 16 18 nan 22 23 22 23 22
23 23 21 20 20 20 20 19 17 16 16 15 14 13 14 14 12 11 12 12 11 13 12 12 13 12 12 12 11 11 10 10 11 13 13 13 11 11 13 14 15 13 12 14 18 18 17 16 19 18 16 nan 18 18 19 20 17 21 nan 22 22 22
24 24 23 23 22 22 21 20 19 18 17 16 16 14 15 13 14 14 13 12 13 13 13 14 14 15 14 13 13 12 11 10 11 12 14 13 11 10 12 15 16 15 16 16 16 17 18 19 19 17 17 16 17 17 16 16 17 18 20 20 nan 21
26 26 24 24 23 22 22 22 20 19 18 17 17 16 16 16 15 15 15 14 15 14 14 14 15 15 16 15 15 14 13 12 11 11 13 13 12 11 11 14 17 18 18 18 17 17 20 19 21 nan 22 18 19 17 18 16 17 21 20 20 17 17
27 28 27 26 25 23 22 24 23 22 20 18 19 19 19 17 17 18 16 15 16 16 16 16 16 17 17 17 16 16 16 14 13 13 13 14 14 13 13 14 16 18 20 20 21 19 17 19 21 21 nan nan 21 21 nan 22 22 21 22 20 18 18
28 28 28 27 26 24 24 25 24 23 22 20 21 21 21 20 20 20 19 18 18 18 19 18 18 18 18 19 19 18 17 16 15 15 15 16 16 15 14 15 16 17 19 21 24 23 20 20 20 20 21 22 nan nan nan nan 22 22 23 22 23 19
30 28 28 27 27 25 24 24 24 25 25 24 24 24 23 22 22 21 20 19 20 21 21 21 21 20 19 19 21 20 19 19 18 18 17 18 18 17 17 17 18 18 18 20 24 26 25 22 20 18 19 21 22 nan nan nan nan 24 24 21 22 20
27 26 27 27 26 26 25 25 25 26 26 26 25 23 23 23 24 22 21 21 22 22 22 23 22 22 21 20 21 22 22 21 20 20 19 20 19 20 19 19 18 18 18 18 20 24 26 24 22 19 16 19 20 21 nan nan 23 24 23 24 24 24
24 25 26 26 25 24 24 25 26 27 27 28 26 26 25 25 24 24 22 21 22 22 22 22 22 23 23 23 24 23 24 24 23 22 21 21 21 21 21 20 19 18 18 17 19 20 22 24 23 20 20 19 19 20 21 nan 22 22 23 28 27 24
23 23 24 24 23 23 23 25 26 27 28 30 30 30 28 26 26 25 25 24 23 23 23 23 23 24 25 25 25 26 27 27 26 25 26 25 24 23 22 21 21 19 19 19 18 18 20 23 22 22 22 21 20 20 21 23 25 23 23 24 28 26
22 22 22 23 23 24 23 26 27 29 30 31 31 32 30 29 27 26 26 26 26 26 24 23 23 24 26 29 28 27 28 26 27 27 27 27 26 24 23 22 22 21 19 21 19 18 18 20 20 22 22 23 24 21 22 23 24 24 24 25 27 29
20 21 22 24 25 26 28 29 29 31 32 32 32 31 30 28 26 26 25 25 25 25 25 25 24 26 26 28 28 27 27 28 31 30 27 29 31 27 25 24 21 22 21 22 21 18 19 18 19 22 23 22 23 23 24 26 25 24 25 27 27 28
Wind_Direction
197 191 189 192 201 220 255 288 287 295 296 298 295 298 302 306 305 302 290 278 241 226 225 226 233 231 249 244 260 264 262 261 258 254 254 257 258 256 255 nan nan nan nan nan 188 185 nan 185 192 199 201 nan nan nan nan nan nan nan nan nan nan nan
200 197 191 192 197 204 224 254 252 262 263 283 288 288 280 261 278 226 277 249 242 238 238 238 236 245 235 244 254 264 262 260 258 251 243 246 250 253 253 252 nan nan nan 201 190 nan nan nan nan 189 207 nan nan nan nan nan nan nan nan nan nan nan
203 199 195 192 198 199 213 218 228 241 250 277 275 271 263 264 240 238 234 239 242 245 247 248 242 248 242 256 255 264 264 260 258 252 238 230 235 242 246 246 nan 227 216 201 nan nan nan nan nan nan nan nan nan nan nan nan nan nan nan nan nan nan
203 203 205 199 199 204 207 215 227 232 243 248 256 262 263 267 254 246 246 235 237 239 239 252 272 281 269 252 253 262 264 261 257 252 242 221 219 223 227 228 227 224 nan nan nan nan nan nan nan nan nan nan nan nan nan nan nan nan nan nan nan nan
204 209 211 207 207 211 210 218 224 233 240 243 252 254 255 256 253 248 238 238 239 240 243 237 238 245 249 251 245 238 237 234 231 232 243 221 219 219 224 nan nan nan nan nan nan nan nan nan nan nan nan nan nan nan nan nan nan nan nan nan nan nan
210 208 211 212 215 212 214 215 216 217 228 231 244 246 249 249 248 245 235 236 232 246 251 249 248 251 247 251 250 245 240 234 232 233 235 235 224 224 224 225 nan nan nan nan nan nan nan 191 192 203 nan nan nan nan nan nan nan nan nan nan nan nan
210 209 210 202 203 204 201 199 207 212 221 225 233 237 246 242 246 245 236 234 238 250 257 257 256 255 254 254 254 251 248 240 235 233 234 236 232 231 227 221 nan nan nan nan nan nan nan nan 190 208 nan nan nan nan nan nan nan nan nan nan nan nan
213 212 203 196 197 197 193 201 201 205 217 222 241 249 245 242 245 248 240 229 236 244 255 260 nan nan 258 254 256 251 246 245 240 238 236 237 233 230 233 228 nan nan nan 222 212 204 193 183 183 nan nan nan nan nan nan nan nan nan nan nan nan nan
207 201 194 194 194 188 185 191 194 204 207 205 223 238 244 240 233 237 234 226 230 245 249 255 267 nan nan 264 259 257 252 246 240 240 243 239 239 nan 239 239 nan 226 229 231 229 nan 201 188 185 nan nan nan nan nan nan nan nan nan nan nan nan nan
197 187 185 194 186 182 185 182 185 200 190 199 214 231 242 241 230 234 236 224 220 236 248 250 249 261 nan nan nan nan 258 252 247 244 245 243 238 243 244 nan nan 231 231 237 237 227 214 nan nan nan nan nan nan nan nan nan nan nan nan nan nan nan
176 175 173 182 175 171 189 174 176 188 176 198 222 243 247 244 235 231 220 218 217 220 242 241 233 237 252 nan nan nan nan nan nan 245 nan nan 243 242 243 nan 244 239 231 233 240 229 nan nan nan nan nan nan nan nan nan nan nan nan nan nan nan nan
151 170 163 156 157 161 147 151 157 166 168 192 198 241 267 247 239 223 206 212 217 211 225 231 235 233 243 253 nan nan nan nan 254 251 nan nan 242 244 246 245 242 237 236 nan 249 250 nan nan nan nan nan nan nan nan nan nan nan nan nan nan nan nan
135 151 157 148 156 162 157 144 151 149 188 192 167 182 272 273 246 208 191 197 207 209 215 229 227 233 247 258 259 266 271 270 266 265 259 254 250 247 238 239 236 232 232 241 nan nan 238 nan nan nan nan nan nan nan nan nan nan nan nan nan nan nan
137 140 143 148 155 160 145 134 152 179 199 217 174 149 147 224 245 215 196 196 205 204 212 226 230 221 241 261 253 263 272 277 279 269 264 259 255 253 245 245 238 232 224 230 240 250 249 238 229 226 nan nan nan nan nan nan nan nan nan nan nan nan
146 147 152 162 167 168 155 137 164 189 204 192 182 151 150 167 221 230 216 200 211 203 203 217 228 239 243 252 254 261 271 278 273 268 263 261 259 254 254 251 244 238 228 224 242 252 256 254 243 228 215 214 211 202 nan 214 nan nan nan nan nan nan
158 158 174 183 191 200 197 185 188 197 227 204 190 133 125 138 222 233 210 237 215 178 214 214 210 252 251 250 259 262 269 273 276 272 265 259 257 258 261 262 254 251 249 241 245 244 246 250 242 228 216 210 205 203 213 215 213 213 nan nan nan 209
174 171 181 192 203 216 219 209 207 209 224 240 249 9 192 192 197 200 169 288 285 197 192 239 229 233 249 252 255 253 262 265 271 273 269 262 260 261 263 263 255 255 258 256 249 239 234 236 237 229 215 210 207 207 208 213 214 214 219 217 216 215
205 195 196 204 208 219 227 226 221 219 217 222 226 255 273 263 130 128 112 52 25 32 266 279 263 251 241 245 250 260 257 263 267 270 272 270 268 254 248 258 261 253 254 257 250 246 243 237 233 228 221 212 206 202 206 207 211 218 220 218 217 220
243 227 219 219 221 226 229 226 225 223 220 219 213 212 218 246 16 51 47 50 69 124 233 252 255 253 251 236 248 258 266 259 258 267 273 274 271 259 251 250 260 253 246 252 256 250 254 249 240 233 226 216 210 207 201 208 211 216 218 221 224 222
255 253 235 231 233 237 238 239 239 226 225 220 218 212 211 223 238 3 68 31 41 289 260 267 267 261 261 248 240 253 265 264 264 267 270 274 275 270 270 261 256 260 252 247 247 250 251 252 244 241 231 218 212 215 208 206 214 216 217 219 222 230
267 264 257 252 241 245 241 240 234 242 244 238 238 233 221 219 228 235 238 240 253 254 254 261 260 266 268 259 251 247 257 263 266 271 275 283 283 278 273 270 266 256 254 247 246 244 246 252 252 246 233 229 214 213 216 214 212 217 223 223 226 231
270 269 267 261 253 245 237 244 247 251 241 240 244 247 244 234 237 235 242 247 249 260 252 253 261 265 265 270 268 262 259 268 269 271 273 270 271 271 269 266 265 251 240 247 248 253 256 nan nan nan 246 234 224 214 219 221 216 214 220 225 230 233
274 271 266 261 256 251 238 232 238 240 248 235 234 240 249 243 240 238 234 245 253 254 262 264 266 271 274 272 278 280 279 275 272 271 268 267 267 270 272 273 272 268 247 237 241 245 259 259 nan nan nan 241 235 231 223 224 219 218 222 225 229 232
276 270 266 260 256 246 242 239 236 236 240 243 238 234 238 228 230 233 228 240 240 253 263 274 275 274 275 277 281 289 283 281 282 275 279 277 270 266 266 268 269 265 259 247 240 241 248 253 nan nan nan 245 241 240 nan 225 223 215 228 230 234 233
271 269 263 258 256 250 244 241 238 236 237 237 232 231 235 225 232 237 238 241 246 254 261 274 276 279 280 285 283 283 286 288 285 283 278 280 277 269 262 265 271 269 268 261 249 240 238 245 246 250 nan nan nan 235 237 232 231 219 229 233 231 235
262 262 261 257 255 255 251 251 246 246 246 246 242 240 248 250 248 250 257 251 251 254 259 260 267 277 278 276 285 289 287 288 291 291 286 286 283 263 249 254 266 270 268 252 252 247 242 239 241 236 nan nan 247 243 246 234 nan 231 225 228 231 234
260 258 256 254 254 254 252 250 250 247 245 249 250 236 233 230 238 239 243 246 251 253 258 263 266 269 276 279 281 286 290 291 293 294 291 285 280 270 256 257 261 262 264 260 249 249 251 254 239 231 234 nan 235 238 243 242 238 238 nan 227 228 234
259 258 256 253 254 255 254 250 247 244 243 244 247 244 241 236 237 238 241 244 249 252 257 262 265 269 274 280 284 288 291 290 290 291 289 289 285 272 260 255 263 264 255 258 260 256 251 250 258 239 242 242 241 239 242 241 242 245 244 236 nan 226
265 262 260 258 256 256 257 257 254 249 243 240 242 243 243 240 238 239 240 240 246 249 253 256 263 267 272 277 281 286 288 288 285 284 285 284 278 270 269 270 268 264 258 254 257 253 252 252 248 nan 249 246 247 245 244 243 243 246 248 245 230 232
268 264 263 262 261 260 260 258 257 252 250 244 242 240 242 240 240 242 243 242 245 248 252 254 257 262 268 275 277 278 280 286 286 282 278 279 277 272 267 266 269 270 264 257 253 254 254 249 252 248 nan nan 252 243 nan 240 243 248 242 246 246 238
271 269 267 267 264 263 261 260 260 258 255 250 247 246 244 243 242 241 242 240 243 245 249 253 254 255 260 264 270 273 275 278 279 278 275 272 274 275 273 271 270 268 266 263 256 253 249 246 251 251 247 249 nan nan nan nan 248 248 248 245 244 238
269 271 270 271 271 269 266 264 261 261 258 254 250 248 248 250 252 251 248 245 242 242 242 247 250 252 253 258 264 268 269 272 274 274 275 273 272 271 269 268 269 272 269 265 256 251 248 246 246 246 242 244 245 nan nan nan nan 251 252 248 253 248
269 268 273 274 276 273 271 271 270 266 262 257 253 252 250 250 252 255 252 247 244 244 242 242 247 250 252 256 259 264 268 268 267 269 271 272 271 271 268 268 269 270 271 270 265 257 251 248 249 249 245 244 244 243 nan nan 246 246 244 249 252 248
268 269 271 273 275 275 277 277 276 274 271 267 262 259 257 254 253 256 254 253 253 250 248 248 247 250 251 253 255 258 262 265 265 265 267 268 267 267 269 270 269 269 269 268 263 259 254 249 247 245 244 241 239 240 237 nan 243 244 244 247 247 251
268 269 271 272 269 273 275 277 277 277 275 272 268 264 260 259 255 255 259 260 257 255 253 248 248 246 246 247 251 253 255 254 256 260 259 254 255 259 262 264 265 267 265 263 264 260 254 253 251 248 247 246 240 238 239 239 243 244 244 245 250 252
269 269 270 270 270 273 273 273 275 276 277 275 271 268 262 257 256 258 257 259 261 262 260 256 251 250 249 249 246 246 250 254 257 258 262 264 260 255 252 256 258 261 263 261 262 263 258 257 255 253 251 247 244 239 238 238 242 244 244 241 245 249
261 264 272 273 274 272 271 269 271 272 273 273 272 269 265 261 257 254 254 256 260 262 262 262 258 254 252 251 251 250 251 249 249 250 252 259 264 260 258 255 253 255 258 258 259 259 259 259 257 256 254 252 251 245 240 238 237 242 242 241 242 246